Weather History for KMHV - April, 2013

Change the Weather History Date:

Friday, April 26, 2013

  Actual Average Record
Temperature  
Mean Temperature 72 °F -  
Max Temperature 84 °F 72 °F 90 °F (1987)
Min Temperature 59 °F 48 °F 35 °F (1984)
Cooling Degree Days 6    
Growing Degree Days 22 (Base 50)    
Moisture  
Dew Point 34 °F    
Average Humidity 30    
Maximum Humidity 48    
Minimum Humidity 9    
Precipitation  
Precipitation 0.00 in - - ()
Sea Level Pressure  
Sea Level Pressure 30.12 in    
Wind  
Wind Speed 16 mph (WNW)    
Max Wind Speed 33 mph    
Max Gust Speed 45 mph    
Visibility 10 miles    
Events      
Averages and records for this station are not official NWS values.
T = Trace of Precipitation, MM = Missing Value Source: NWS Daily Summary

Daily Weather History Graph

Daily Weather History Graph

Search for Another Location

Airport or City:

Trip Planner

Search our weather history database for the weather conditions in past years. The results will help you decide how hot, cold, wet, or windy it might be!

Date:

Astronomy

Apr. 26, 2013 Rise Set
Actual Time 6:06 AM PDT 7:34 PM PDT
Civil Twilight 5:40 AM PDT 8:01 PM PDT
Nautical Twilight 5:08 AM PDT 8:33 PM PDT
Astronomical Twilight 4:34 AM PDT 9:07 PM PDT
Moon 8:59 PM PDT (4/26) 6:40 AM PDT (4/26)
Length of Visible Light 14h 21m
Length of Day
13h 27m
Full, 99% of the Moon is Illuminated
Apr 26
Full
May 2
Last Quarter
May 9
New
May 17
First Quarter
May 24
Full

Hourly Weather History & Observations

Time (PDT) Temp. Dew Point Humidity Pressure Visibility Wind Dir Wind Speed Gust Speed Precip Events Conditions
12:15 AM 64.4 °F 37.4 °F 37% 30.03 in 10.0 mi WNW 25.3 mph 40.3 mph N/A   Clear
12:35 AM 62.6 °F 37.4 °F 39% 30.03 in 10.0 mi West 33.4 mph 42.6 mph N/A   Clear
12:55 AM 62.6 °F 37.4 °F 39% 30.03 in 10.0 mi West 31.1 mph 44.9 mph N/A   Clear
1:15 AM 62.6 °F 35.6 °F 37% 30.04 in 10.0 mi WNW 26.5 mph 40.3 mph N/A   Clear
1:35 AM 62.6 °F 35.6 °F 37% 30.04 in 10.0 mi WNW 26.5 mph 38.0 mph N/A   Clear
1:55 AM 62.6 °F 33.8 °F 34% 30.04 in 10.0 mi West 29.9 mph 36.8 mph N/A   Clear
2:15 AM 62.6 °F 35.6 °F 37% 30.06 in 10.0 mi NW 17.3 mph 33.4 mph N/A   Clear
2:35 AM 62.6 °F 35.6 °F 37% 30.06 in 10.0 mi WNW 23.0 mph 28.8 mph N/A   Clear
2:55 AM 62.6 °F 35.6 °F 37% 30.06 in 10.0 mi WNW 21.9 mph 29.9 mph N/A   Clear
3:15 AM 62.6 °F 35.6 °F 37% 30.07 in 10.0 mi WNW 16.1 mph 26.5 mph N/A   Clear
3:35 AM 62.6 °F 35.6 °F 37% 30.08 in 10.0 mi NW 15.0 mph 18.4 mph N/A   Clear
3:55 AM 60.8 °F 37.4 °F 42% 30.09 in 10.0 mi WNW 9.2 mph - N/A   Clear
4:10 AM 60.8 °F 35.6 °F 39% 30.09 in 10.0 mi WNW 5.8 mph - N/A   Clear
4:35 AM 59.0 °F 37.4 °F 45% 30.09 in 10.0 mi WNW 5.8 mph - N/A   Clear
4:50 AM 59.0 °F 37.4 °F 45% 30.09 in 10.0 mi WNW 13.8 mph - N/A   Clear
5:15 AM 59.0 °F 39.2 °F 48% 30.09 in 10.0 mi NW 10.4 mph - N/A   Clear
5:35 AM 59.0 °F 39.2 °F 48% 30.10 in 10.0 mi WNW 9.2 mph - N/A   Clear
5:55 AM 59.0 °F 39.2 °F 48% 30.10 in 10.0 mi NW 13.8 mph - N/A   Clear
6:15 AM 59.0 °F 39.2 °F 48% 30.11 in 10.0 mi NW 11.5 mph - N/A   Clear
6:35 AM 60.8 °F 37.4 °F 42% 30.12 in 10.0 mi NNW 6.9 mph - N/A   Clear
6:55 AM 62.6 °F 37.4 °F 39% 30.13 in 10.0 mi NW 8.1 mph - N/A   Clear
7:15 AM 62.6 °F 37.4 °F 39% 30.14 in 10.0 mi North 3.5 mph - N/A   Clear
7:35 AM 64.4 °F 33.8 °F 32% 30.15 in 10.0 mi Calm Calm - N/A   Clear
7:55 AM 64.4 °F 32.0 °F 30% 30.15 in 10.0 mi NE 3.5 mph - N/A   Clear
8:15 AM 66.2 °F 32.0 °F 28% 30.16 in 10.0 mi East 3.5 mph - N/A   Clear
8:35 AM 66.2 °F 33.8 °F 30% 30.16 in 10.0 mi ESE 4.6 mph - N/A   Clear
8:55 AM 68.0 °F 35.6 °F 30% 30.16 in 10.0 mi ESE 3.5 mph - N/A   Clear
9:15 AM 68.0 °F 33.8 °F 28% 30.17 in 10.0 mi Calm Calm - N/A   Clear
9:35 AM 69.8 °F 35.6 °F 28% 30.17 in 10.0 mi SE 4.6 mph - N/A   Clear
9:55 AM 71.6 °F 33.8 °F 25% 30.18 in 10.0 mi Calm Calm - N/A   Clear
10:15 AM 71.6 °F 33.8 °F 25% 30.18 in 10.0 mi ESE 3.5 mph - N/A   Clear
10:35 AM 73.4 °F 32.0 °F 22% 30.18 in 10.0 mi East 4.6 mph - N/A   Clear
10:55 AM 75.2 °F 28.4 °F 18% 30.18 in 10.0 mi East 3.5 mph - N/A   Clear
11:15 AM 75.2 °F 24.8 °F 15% 30.18 in 10.0 mi ESE 8.1 mph - N/A   Clear
11:35 AM 77.0 °F 21.2 °F 12% 30.18 in 10.0 mi East 4.6 mph - N/A   Clear
11:55 AM 77.0 °F 14.0 °F 9% 30.18 in 10.0 mi ENE 6.9 mph - N/A   Clear
12:15 PM 77.0 °F 15.8 °F 10% 30.17 in 10.0 mi East 4.6 mph 16.1 mph N/A   Clear
12:35 PM 78.8 °F 15.8 °F 9% 30.17 in 10.0 mi Calm Calm - N/A   Clear
12:55 PM 80.6 °F 17.6 °F 10% 30.16 in 10.0 mi ESE 8.1 mph - N/A   Clear
1:15 PM 80.6 °F 17.6 °F 10% 30.16 in 10.0 mi ENE 8.1 mph - N/A   Clear
1:35 PM 80.6 °F 19.4 °F 10% 30.16 in 10.0 mi Calm Calm - N/A   Clear
1:55 PM 80.6 °F 17.6 °F 10% 30.15 in 10.0 mi NE 9.2 mph - N/A   Clear
2:15 PM 82.4 °F 21.2 °F 10% 30.15 in 10.0 mi ESE 8.1 mph - N/A   Clear
2:35 PM 80.6 °F 19.4 °F 10% 30.14 in 10.0 mi South 8.1 mph - N/A   Clear
2:55 PM 82.4 °F 19.4 °F 10% 30.13 in 10.0 mi WSW 6.9 mph - N/A   Clear
3:15 PM 82.4 °F 19.4 °F 10% 30.13 in 10.0 mi ESE 3.5 mph - N/A   Clear
3:35 PM 82.4 °F 19.4 °F 10% 30.12 in 10.0 mi Calm Calm - N/A   Clear
3:55 PM 84.2 °F 19.4 °F 9% 30.11 in 10.0 mi SW 5.8 mph - N/A   Clear
4:15 PM 82.4 °F 19.4 °F 10% 30.11 in 10.0 mi West 3.5 mph - N/A   Clear
4:35 PM 84.2 °F 32.0 °F 15% 30.11 in 10.0 mi West 13.8 mph 20.7 mph N/A   Clear
4:55 PM 82.4 °F 37.4 °F 20% 30.10 in 10.0 mi WNW 17.3 mph - N/A   Clear
5:15 PM 82.4 °F 41.0 °F 23% 30.11 in 10.0 mi West 18.4 mph 24.2 mph N/A   Clear
5:35 PM 80.6 °F 41.0 °F 24% 30.11 in 10.0 mi WNW 18.4 mph 24.2 mph N/A   Clear
5:55 PM 78.8 °F 42.8 °F 28% 30.11 in 10.0 mi WNW 18.4 mph - N/A   Clear
6:10 PM 77.0 °F 42.8 °F 29% 30.11 in 10.0 mi WNW 19.6 mph - N/A   Clear
6:35 PM 77.0 °F 42.8 °F 29% 30.11 in 10.0 mi WNW 19.6 mph 26.5 mph N/A   Clear
6:55 PM 75.2 °F 42.8 °F 31% 30.11 in 10.0 mi WNW 19.6 mph 25.3 mph N/A   Clear
7:15 PM 73.4 °F 44.6 °F 36% 30.11 in 10.0 mi WNW 21.9 mph 28.8 mph N/A   Clear
7:35 PM 71.6 °F 42.8 °F 35% 30.12 in 10.0 mi WNW 21.9 mph 28.8 mph N/A   Clear
7:55 PM 71.6 °F 42.8 °F 35% 30.12 in 10.0 mi WNW 18.4 mph 27.6 mph N/A   Clear
8:15 PM 69.8 °F 44.6 °F 40% 30.13 in 10.0 mi WNW 18.4 mph 33.4 mph N/A   Clear
8:35 PM 68.0 °F 44.6 °F 43% 30.13 in 10.0 mi WNW 21.9 mph 27.6 mph N/A   Clear
8:55 PM 68.0 °F 44.6 °F 43% 30.14 in 10.0 mi WNW 20.7 mph 33.4 mph N/A   Clear
9:10 PM 68.0 °F 44.6 °F 43% 30.14 in 10.0 mi WNW 24.2 mph 28.8 mph N/A   Clear
9:35 PM 68.0 °F 44.6 °F 43% 30.15 in 10.0 mi WNW 21.9 mph 31.1 mph N/A   Clear
9:50 PM 68.0 °F 44.6 °F 43% 30.15 in 10.0 mi WNW 23.0 mph 29.9 mph N/A   Clear
10:15 PM 68.0 °F 42.8 °F 40% 30.15 in 10.0 mi WNW 23.0 mph 29.9 mph N/A   Clear
10:35 PM 68.0 °F 41.0 °F 37% 30.15 in 10.0 mi WNW 23.0 mph 29.9 mph N/A   Clear
10:55 PM 68.0 °F 39.2 °F 35% 30.16 in 10.0 mi WNW 24.2 mph 29.9 mph N/A   Clear
11:15 PM 68.0 °F 39.2 °F 35% 30.16 in 10.0 mi WNW 20.7 mph 28.8 mph N/A   Clear
11:35 PM 68.0 °F 39.2 °F 35% 30.16 in 10.0 mi West 20.7 mph 31.1 mph N/A   Clear
11:55 PM 68.0 °F 39.2 °F 35% 30.16 in 10.0 mi West 23.0 mph 31.1 mph N/A   Clear